McAlester, OK

2:53 AM CST on December 10, 2019 (GMT -0600)
McAlester Regional

Weather History for KMLC - September, 2019

Change the Weather History Date:

Friday, September 27, 2019

  Actual Average Record
Temperature  
Mean Temperature 81 °F -  
Max Temperature 89 °F 80 °F 101 °F (1953)
Min Temperature 73 °F 56 °F 45 °F (1985)
Cooling Degree Days 16    
Growing Degree Days 31 (Base 50)    
Moisture  
Dew Point 68 °F    
Average Humidity 67    
Maximum Humidity 82    
Minimum Humidity 49    
Precipitation  
Precipitation 0.00 in - - ()
Sea Level Pressure  
Sea Level Pressure 29.78 in    
Wind  
Wind Speed 8 mph (South)    
Max Wind Speed 16 mph    
Max Gust Speed 24 mph    
Visibility 10 miles    
Events      
Averages and records for this station are not official NWS values.
T = Trace of Precipitation, MM = Missing Value Source: NWS Daily Summary

Daily Weather History Graph

Daily Weather History Graph

Search for Another Location

Airport or City:

Astronomy

Sep. 27, 2019 Rise Set
Actual Time 7:14 AM CDT 7:13 PM CDT
Civil Twilight 6:49 AM CDT 7:38 PM CDT
Nautical Twilight 6:20 AM CDT 8:07 PM CDT
Astronomical Twilight 5:50 AM CDT 8:37 PM CDT
Moon 5:44 AM CDT (9/27) 6:59 PM CDT (9/27)
Length of Visible Light 12h 48m
Length of Day
11h 58m
Waning Crescent, 2% of the Moon is Illuminated
Sep 27
Waning Crescent
Sep 28
New
Oct 5
First Quarter
Oct 13
Full
Oct 21
Last Quarter

Hourly Weather History & Observations

Time (CDT) Temp. Heat Index Dew Point Humidity Pressure Visibility Wind Dir Wind Speed Gust Speed Precip Events Conditions
12:53 AM 73.9 °F - 68.0 °F 82% 29.80 in 10.0 mi SE 6.9 mph - N/A   Clear
1:53 AM 75.0 °F - 68.0 °F 79% 29.79 in 10.0 mi SSE 6.9 mph - N/A   Clear
2:53 AM 75.9 °F - 69.1 °F 79% 29.79 in 10.0 mi South 8.1 mph - N/A   Clear
3:53 AM 75.0 °F - 69.1 °F 82% 29.78 in 10.0 mi South 6.9 mph - N/A   Clear
4:53 AM 75.0 °F - 68.0 °F 79% 29.79 in 10.0 mi South 8.1 mph - N/A   Clear
5:53 AM 75.0 °F - 66.9 °F 76% 29.80 in 10.0 mi South 8.1 mph - N/A   Clear
6:53 AM 73.9 °F - 66.9 °F 79% 29.81 in 10.0 mi Variable 6.9 mph - N/A   Clear
7:53 AM 73.9 °F - 66.9 °F 79% 29.82 in 10.0 mi South 8.1 mph 17.3 mph N/A   Clear
8:53 AM 75.9 °F - 66.9 °F 74% 29.82 in 10.0 mi SSW 11.5 mph 19.6 mph N/A   Clear
9:53 AM 80.1 °F 82.7 °F 68.0 °F 67% 29.83 in 10.0 mi South 9.2 mph 17.3 mph N/A   Clear
10:53 AM 82.9 °F 86.5 °F 69.1 °F 63% 29.82 in 10.0 mi SSW 10.4 mph 20.7 mph N/A   Clear
11:53 AM 86.0 °F 90.7 °F 70.0 °F 59% 29.81 in 10.0 mi South 10.4 mph - N/A   Clear
12:53 PM 87.1 °F 90.6 °F 68.0 °F 53% 29.79 in 10.0 mi SSW 10.4 mph 20.7 mph N/A   Clear
1:53 PM 89.1 °F 93.7 °F 69.1 °F 52% 29.77 in 10.0 mi South 11.5 mph 19.6 mph N/A   Clear
2:53 PM 88.0 °F 91.4 °F 68.0 °F 51% 29.74 in 10.0 mi South 16.1 mph 24.2 mph N/A   Clear
3:53 PM 88.0 °F 90.7 °F 66.9 °F 49% 29.72 in 10.0 mi South 9.2 mph 20.7 mph N/A   Clear
4:53 PM 87.1 °F 90.6 °F 68.0 °F 53% 29.71 in 10.0 mi South 8.1 mph 21.9 mph N/A   Clear
5:53 PM 84.9 °F 88.2 °F 68.0 °F 57% 29.72 in 10.0 mi Variable 6.9 mph 16.1 mph N/A   Clear
6:53 PM 82.0 °F 84.5 °F 66.9 °F 60% 29.73 in 10.0 mi SSE 6.9 mph - N/A   Clear
7:53 PM 79.0 °F - 68.0 °F 69% 29.74 in 10.0 mi SE 6.9 mph - N/A   Clear
8:53 PM 78.1 °F - 66.9 °F 68% 29.76 in 10.0 mi SE 6.9 mph - N/A   Clear
9:53 PM 78.1 °F - 66.0 °F 66% 29.76 in 10.0 mi SSE 9.2 mph - N/A   Scattered Clouds
10:53 PM 79.0 °F - 66.0 °F 64% 29.75 in 10.0 mi SSE 11.5 mph 20.7 mph N/A   Clear